Weather History for Reno, NV

Change the Weather History Date:

Wednesday, December 12, 2012

  Actual Average Record
Temperature  
Mean Temperature 38 °F 35 °F  
Max Temperature 46 °F 46 °F 69 °F (1921)
Min Temperature 29 °F 25 °F -5 °F (1932)
Degree Days  
Heating Degree Days 27 30  
Month to date heating degree days 254 343  
Since 1 July heating degree days 1053 1446  
Cooling Degree Days 0 0  
Month to date cooling degree days 0 0  
Year to date cooling degree days 1272 839  
Moisture  
Dew Point 26 °F    
Average Humidity 66    
Maximum Humidity 85    
Minimum Humidity 47    
Precipitation  
Precipitation T in 0.03 in 1.74 in (1995)
Month to date precipitation 0.97 0.36  
Year to date precipitation 4.63 6.73  
Snow  
Snow T in 0.10 in 3.60 in (2009)
Month to date snowfall T 1.3  
Since 1 July snowfall 0.8 4.8  
Snow Depth 0.00 in    
Sea Level Pressure  
Sea Level Pressure 29.71 in    
Wind  
Wind Speed 5 mph (NW)    
Max Wind Speed 21 mph    
Max Gust Speed 26 mph    
Visibility 10 miles    
Events      
T = Trace of Precipitation, MM = Missing Value Source: NWS Daily Summary

Daily Weather History Graph

Daily Weather History Graph

Search for Another Location

Airport:

Trip Planner

Search our weather history database for the weather conditions in past years. The results will help you decide how hot, cold, wet, or windy it might be!

Date:

Astronomy

Dec. 12, 2012 Rise Set
Actual Time 7:10 AM PST 4:35 PM PST
Civil Twilight 6:40 AM PST 5:05 PM PST
Nautical Twilight 6:06 AM PST 5:39 PM PST
Astronomical Twilight 5:33 AM PST 6:12 PM PST
Moon 6:20 AM PST (12/12) 4:17 PM PST (12/12)
Length of Visible Light 10h 25m
Length of Day
9h 25m
Waning Crescent, 0% of the Moon is Illuminated
Dec 12
Waning Crescent
Dec 13
New
Dec 19
First Quarter
Dec 28
Full
Jan 4
Last Quarter

Hourly Weather History & Observations

Time (PST) Temp. Windchill Dew Point Humidity Pressure Visibility Wind Dir Wind Speed Gust Speed Precip Events Conditions
12:55 AM 37.9 °F 33.5 °F 32.0 °F 79% 29.70 in 10.0 mi WNW 5.8 mph - 0.00 in   Mostly Cloudy
1:55 AM 37.9 °F 34.4 °F 33.1 °F 83% 29.67 in 10.0 mi SSE 4.6 mph - 0.00 in   Overcast
2:55 AM 37.0 °F - 33.1 °F 86% 29.65 in 10.0 mi Calm Calm - 0.00 in   Mostly Cloudy
3:55 AM 37.0 °F - 30.9 °F 79% 29.65 in 10.0 mi Calm Calm - N/A   Mostly Cloudy
4:55 AM 39.0 °F 36.8 °F 28.9 °F 67% 29.64 in 10.0 mi ENE 3.5 mph - N/A   Mostly Cloudy
5:55 AM 37.0 °F 28.5 °F 30.0 °F 76% 29.66 in 10.0 mi South 13.8 mph 20.7 mph N/A   Mostly Cloudy
6:55 AM 37.0 °F 31.6 °F 30.9 °F 79% 29.67 in 10.0 mi WNW 6.9 mph - N/A   Mostly Cloudy
7:55 AM 37.9 °F - 30.9 °F 76% 29.68 in 10.0 mi Calm Calm - N/A   Mostly Cloudy
8:55 AM 41.0 °F 37.1 °F 30.9 °F 67% 29.69 in 10.0 mi East 5.8 mph - N/A   Scattered Clouds
9:55 AM 43.0 °F 41.3 °F 28.9 °F 58% 29.68 in 10.0 mi East 3.5 mph - N/A   Mostly Cloudy
10:55 AM 45.0 °F 42.6 °F 28.0 °F 52% 29.68 in 10.0 mi Variable 4.6 mph - N/A   Mostly Cloudy
11:55 AM 44.1 °F 42.5 °F 28.0 °F 53% 29.68 in 10.0 mi NW 3.5 mph - N/A   Mostly Cloudy
12:55 PM 42.1 °F - 30.9 °F 65% 29.69 in 10.0 mi Calm Calm - N/A   Mostly Cloudy
1:13 PM 42.8 °F 37.5 °F 28.4 °F 57% 29.69 in 10.0 mi NW 9.2 mph - 0.00 in   Small Hail
1:31 PM 41.0 °F 35.8 °F 28.4 °F 61% 29.71 in 10.0 mi North 8.1 mph - 0.00 in   Mostly Cloudy
1:55 PM 44.1 °F 41.5 °F 26.1 °F 49% 29.68 in 10.0 mi North 4.6 mph - 0.00 in   Mostly Cloudy
2:55 PM 41.0 °F 32.2 °F 27.0 °F 57% 29.70 in 10.0 mi WNW 18.4 mph - N/A   Mostly Cloudy
3:55 PM 39.9 °F 35.1 °F 24.1 °F 53% 29.70 in 10.0 mi SE 6.9 mph - N/A   Mostly Cloudy
4:55 PM 37.9 °F 30.9 °F 21.0 °F 51% 29.72 in 10.0 mi NW 10.4 mph 19.6 mph N/A   Mostly Cloudy
5:55 PM 36.0 °F 28.5 °F 17.1 °F 46% 29.73 in 10.0 mi West 10.4 mph - N/A   Scattered Clouds
6:55 PM 35.1 °F 32.2 °F 17.1 °F 48% 29.76 in 10.0 mi Variable 3.5 mph - N/A   Scattered Clouds
7:55 PM 34.0 °F 29.8 °F 18.0 °F 52% 29.76 in 10.0 mi NW 4.6 mph - N/A   Scattered Clouds
8:55 PM 33.1 °F - 18.0 °F 54% 29.78 in 10.0 mi Calm Calm - N/A   Scattered Clouds
9:55 PM 32.0 °F - 19.0 °F 59% 29.79 in 10.0 mi Calm Calm - N/A   Scattered Clouds
10:55 PM 30.9 °F - 18.0 °F 59% 29.80 in 10.0 mi Calm Calm - N/A   Mostly Cloudy
11:55 PM 30.0 °F - 18.0 °F 61% 29.80 in 10.0 mi Calm Calm - N/A   Scattered Clouds